Date,TemperatureHighF,TemperatureAvgF,TemperatureLowF,DewpointHighF,DewpointAvgF,DewpointLowF,HumidityHigh,HumidityAvg,HumidityLow,PressureMaxIn,PressureMinIn,WindSpeedMaxMPH,WindSpeedAvgMPH,GustSpeedMaxMPH,PrecipitationSumIn
2013-1-1,27,15,9,-100,-100,-100,0,0,100,0.00,40.00,0,-999,0,0.00
2013-1-2,17,12,6,-100,-100,-100,0,0,100,0.00,40.00,0,-999,0,0.00
2013-1-3,27,15,4,-100,-100,-100,0,0,100,0.00,40.00,0,-999,0,0.00
2013-1-4,30,18,13,-100,-100,-100,0,0,100,0.00,40.00,0,-999,0,0.00
2013-1-5,31,21,17,-100,-100,-100,0,0,100,0.00,40.00,0,-999,0,0.00
2013-1-6,29,21,17,-100,-100,-100,0,0,100,0.00,40.00,0,-999,0,0.00
2013-1-7,25,20,17,-100,-100,-100,0,0,100,0.00,40.00,0,-999,0,0.02
2013-1-8,31,28,25,-100,-100,-100,0,0,100,0.00,40.00,0,-999,0,0.01
2013-1-9,34,32,30,-100,-100,-100,0,0,100,0.00,40.00,0,-999,0,0.02
2013-1-10,28,22,17,-100,-100,-100,0,0,100,0.00,40.00,0,-999,0,0.02
2013-1-11,23,15,9,-100,-100,-100,0,0,100,0.00,40.00,0,-999,0,0.00
2013-1-12,18,9,1,-100,-100,-100,0,0,100,0.00,40.00,0,-999,0,0.00
2013-1-13,18,8,3,-100,-100,-100,0,0,100,0.00,40.00,0,-999,0,0.00
2013-1-14,16,10,5,-100,-100,-100,0,0,100,0.00,40.00,0,-999,0,0.01
2013-1-15,33,19,12,-100,-100,-100,0,0,100,0.00,40.00,0,-999,0,0.01
2013-1-16,29,20,17,-100,-100,-100,0,0,100,0.00,40.00,0,-999,0,0.00
2013-1-17,29,18,13,-100,-100,-100,0,0,100,0.00,40.00,0,-999,0,0.00
2013-1-18,34,21,17,-100,-100,-100,0,0,100,0.00,40.00,0,-999,0,0.00
2013-1-19,38,21,17,-100,-100,-100,0,0,100,0.00,40.00,0,-999,0,0.00
2013-1-20,42,26,19,-100,-100,-100,0,0,100,0.00,40.00,0,-999,0,0.00
2013-1-21,42,26,21,-100,-100,-100,0,0,100,0.00,40.00,0,-999,0,0.00
2013-1-22,42,29,22,-100,-100,-100,0,0,100,0.00,40.00,0,-999,0,0.00
2013-1-23,36,30,27,-100,-100,-100,0,0,100,0.00,40.00,0,-999,0,0.00
2013-1-24,33,31,27,-100,-100,-100,0,0,100,0.00,40.00,0,-999,0,0.02
2013-1-25,36,34,33,-100,-100,-100,0,0,100,0.00,40.00,0,-999,0,0.03
2013-1-26,35,32,25,-100,-100,-100,0,0,100,0.00,40.00,0,-999,0,0.03
2013-1-27,29,22,17,-100,-100,-100,0,0,100,0.00,40.00,0,-999,0,0.01
2013-1-28,26,21,14,-100,-100,-100,0,0,100,0.00,40.00,0,-999,0,0.02
2013-1-29,35,27,22,-100,-100,-100,0,0,100,0.00,40.00,0,-999,0,0.03
2013-1-30,39,31,27,-100,-100,-100,0,0,100,0.00,40.00,0,-999,0,0.02
2013-1-31,36,33,28,-100,-100,-100,0,0,100,0.00,40.00,0,-999,0,0.01
2013-2-1,42,32,26,-100,-100,-100,0,0,100,0.00,40.00,0,-999,0,0.00
2013-2-2,42,28,23,-100,-100,-100,0,0,100,0.00,40.00,0,-999,0,0.00
2013-2-3,32,28,26,-100,-100,-100,0,0,100,0.00,40.00,0,-999,0,0.00
2013-2-4,42,32,28,-100,-100,-100,0,0,100,0.00,40.00,0,-999,0,0.00
2013-2-5,43,32,27,-100,-100,-100,0,0,100,0.00,40.00,0,-999,0,0.00
2013-2-6,38,28,23,-100,-100,-100,0,0,100,0.00,40.00,0,-999,0,0.00
2013-2-7,42,28,23,-100,-100,-100,0,0,100,0.00,40.00,0,-999,0,0.00
2013-2-8,34,26,22,-100,-100,-100,0,0,100,0.00,40.00,0,-999,0,0.00
2013-2-9,33,26,22,-100,-100,-100,0,0,100,0.00,40.00,0,-999,0,0.00
2013-2-10,35,25,18,-100,-100,-100,0,0,100,0.00,40.00,0,-999,0,0.00
2013-2-11,40,23,15,-100,-100,-100,0,0,100,0.00,40.00,0,-999,0,0.00
2013-2-12,38,29,21,-100,-100,-100,0,0,100,0.00,40.00,0,-999,0,0.00
2013-2-13,42,32,29,-100,-100,-100,0,0,100,0.00,40.00,0,-999,0,0.00
2013-2-14,43,32,22,-100,-100,-100,0,0,100,0.00,40.00,0,-999,0,0.00
2013-2-15,49,32,24,-100,-100,-100,0,0,100,0.00,40.00,0,-999,0,0.00
2013-2-16,44,34,29,-100,-100,-100,0,0,100,0.00,40.00,0,-999,0,0.00
2013-2-17,33,26,18,-100,-100,-100,0,0,100,0.00,40.00,0,-999,0,0.00
2013-2-18,36,24,16,-100,-100,-100,0,0,100,0.00,40.00,0,-999,0,0.00
2013-2-19,32,26,18,-100,-100,-100,0,0,100,0.00,40.00,0,-999,0,0.01
2013-2-20,31,23,16,-100,-100,-100,0,0,100,0.00,40.00,0,-999,0,0.01
2013-2-21,32,22,13,-100,-100,-100,0,0,100,0.00,40.00,0,-999,0,0.01
2013-2-22,28,26,24,-100,-100,-100,0,0,100,0.00,40.00,0,-999,0,0.02
2013-2-23,35,25,19,-100,-100,-100,0,0,100,0.00,40.00,0,-999,0,0.02
2013-2-24,33,23,16,-100,-100,-100,0,0,100,0.00,40.00,0,-999,0,0.02
2013-2-25,29,23,18,-100,-100,-100,0,0,100,0.00,40.00,0,-999,0,0.02
2013-2-26,41,19,11,-100,-100,-100,0,0,100,0.00,40.00,0,-999,0,0.01
2013-2-27,38,23,15,-100,-100,-100,0,0,100,0.00,40.00,0,-999,0,0.00
2013-2-28,35,30,24,-100,-100,-100,0,0,100,0.00,40.00,0,-999,0,0.02
2013-3-1,39,35,32,-100,-100,-100,0,0,100,0.00,40.00,0,-999,0,0.01
2013-3-2,47,37,32,-100,-100,-100,0,0,100,0.00,40.00,0,-999,0,0.00
2013-3-3,38,31,18,-100,-100,-100,0,0,100,0.00,40.00,0,-999,0,0.00
2013-3-4,42,24,13,-100,-100,-100,0,0,100,0.00,40.00,0,-999,0,0.00
2013-3-5,41,29,18,-100,-100,-100,0,0,100,0.00,40.00,0,-999,0,0.00
2013-3-6,38,32,29,-100,-100,-100,0,0,100,0.00,40.00,0,-999,0,0.02
2013-3-7,41,30,24,-100,-100,-100,0,0,100,0.00,40.00,0,-999,0,0.01
2013-3-8,45,30,21,-100,-100,-100,0,0,100,0.00,40.00,0,-999,0,0.00
2013-3-9,43,32,24,-100,-100,-100,0,0,100,0.00,40.00,0,-999,0,0.00
2013-3-10,46,34,24,-100,-100,-100,0,0,100,0.00,40.00,0,-999,0,0.00
2013-3-11,46,37,32,-100,-100,-100,0,0,100,0.00,40.00,0,-999,0,0.01
2013-3-12,43,37,34,-100,-100,-100,0,0,100,0.00,40.00,0,-999,0,0.00
2013-3-13,51,41,36,-100,-100,-100,0,0,100,0.00,40.00,0,-999,0,0.00
2013-3-14,56,43,36,-100,-100,-100,0,0,100,0.00,40.00,0,-999,0,0.00
2013-3-15,52,41,35,-100,-100,-100,0,0,100,0.00,40.00,0,-999,0,0.00
2013-3-16,45,35,29,-100,-100,-100,0,0,100,0.00,40.00,0,-999,0,0.01
2013-3-17,38,27,18,-100,-100,-100,0,0,100,0.00,40.00,0,-999,0,0.01
2013-3-18,40,27,18,-100,-100,-100,0,0,100,0.00,40.00,0,-999,0,0.00
2013-3-19,45,32,16,-100,-100,-100,0,0,100,0.00,40.00,0,-999,0,0.00
2013-3-20,38,35,30,-100,-100,-100,0,0,100,0.00,40.00,0,-999,0,0.04
2013-3-21,33,26,19,-100,-100,-100,0,0,100,0.00,40.00,0,-999,0,0.02
2013-3-22,31,22,14,-100,-100,-100,0,0,100,0.00,40.00,0,-999,0,0.00
2013-3-23,36,19,11,-100,-100,-100,0,0,100,0.00,40.00,0,-999,0,0.01
2013-3-24,40,23,12,-100,-100,-100,0,0,100,0.00,40.00,0,-999,0,0.00
2013-3-25,44,30,18,-100,-100,-100,0,0,100,0.00,40.00,0,-999,0,0.00
2013-3-26,48,36,29,-100,-100,-100,0,0,100,0.00,40.00,0,-999,0,0.00
2013-3-27,47,38,30,-100,-100,-100,0,0,100,0.00,40.00,0,-999,0,0.00
2013-3-28,53,41,35,-100,-100,-100,0,0,100,0.00,40.00,0,-999,0,0.00
2013-3-29,52,40,36,-100,-100,-100,0,0,100,0.00,40.00,0,-999,0,0.00
2013-3-30,57,42,32,-100,-100,-100,0,0,100,0.00,40.00,0,-999,0,0.00
2013-3-31,63,44,34,-100,-100,-100,0,0,100,0.00,40.00,0,-999,0,0.00
2013-4-1,62,46,36,-100,-100,-100,0,0,100,0.00,40.00,0,-999,0,0.00
2013-4-2,60,46,38,-100,-100,-100,0,0,100,0.00,40.00,0,-999,0,0.00
2013-4-3,54,44,36,-100,-100,-100,0,0,100,0.00,40.00,0,-999,0,0.00
2013-4-4,52,42,39,-100,-100,-100,0,0,100,0.00,40.00,0,-999,0,0.00
2013-4-5,48,39,35,-100,-100,-100,0,0,100,0.00,40.00,0,-999,0,0.01
2013-4-6,46,38,35,-100,-100,-100,0,0,100,0.00,40.00,0,-999,0,0.01
2013-4-7,45,36,30,-100,-100,-100,0,0,100,0.00,40.00,0,-999,0,0.03
2013-4-8,38,32,27,-100,-100,-100,0,0,100,0.00,40.00,0,-999,0,0.01
2013-4-9,48,35,26,-100,-100,-100,0,0,100,0.00,40.00,0,-999,0,0.00
2013-4-10,44,37,30,-100,-100,-100,0,0,100,0.00,40.00,0,-999,0,0.01
2013-4-11,53,38,28,-100,-100,-100,0,0,100,0.00,40.00,0,-999,0,0.00
2013-4-12,49,35,27,-100,-100,-100,0,0,100,0.00,40.00,0,-999,0,0.00
2013-4-13,38,34,28,-100,-100,-100,0,0,100,0.00,40.00,0,-999,0,0.01
2013-4-14,40,29,24,-100,-100,-100,0,0,100,0.00,40.00,0,-999,0,0.01
2013-4-15,41,30,22,-100,-100,-100,0,0,100,0.00,40.00,0,-999,0,0.01
2013-4-16,39,30,23,-100,-100,-100,0,0,100,0.00,40.00,0,-999,0,0.00
2013-4-17,43,30,20,-100,-100,-100,0,0,100,0.00,40.00,0,-999,0,0.00
2013-4-18,47,33,22,-100,-100,-100,0,0,100,0.00,40.00,0,-999,0,0.01
2013-4-19,40,37,34,-100,-100,-100,0,0,100,0.00,40.00,0,-999,0,0.02
2013-4-20,46,39,33,-100,-100,-100,0,0,100,0.00,40.00,0,-999,0,0.01
2013-4-21,47,38,32,-100,-100,-100,0,0,100,0.00,40.00,0,-999,0,0.00
2013-4-22,42,33,27,-100,-100,-100,0,0,100,0.00,40.00,0,-999,0,0.01
2013-4-23,47,34,24,-100,-100,-100,0,0,100,0.00,40.00,0,-999,0,0.00
2013-4-24,56,47,35,-100,-100,-100,0,0,100,0.00,40.00,0,-999,0,0.00
2013-4-25,59,46,32,-100,-100,-100,0,0,100,0.00,40.00,0,-999,0,0.00
2013-4-26,64,49,36,-100,-100,-100,0,0,100,0.00,40.00,0,-999,0,0.00
2013-4-27,63,48,38,-100,-100,-100,0,0,100,0.00,40.00,0,-999,0,0.01
2013-4-28,53,44,38,-100,-100,-100,0,0,100,0.00,40.00,0,-999,0,0.01
2013-4-29,51,42,31,-100,-100,-100,0,0,100,0.00,40.00,0,-999,0,0.01
2013-4-30,36,31,24,-100,-100,-100,0,0,100,0.00,40.00,0,-999,0,0.01
2013-5-1,48,35,21,-100,-100,-100,0,0,100,0.00,40.00,0,-999,0,0.00
2013-5-2,59,42,30,-100,-100,-100,0,0,100,0.00,40.00,0,-999,0,0.00
2013-5-3,58,47,38,-100,-100,-100,0,0,100,0.00,40.00,0,-999,0,0.00
2013-5-4,56,45,38,-100,-100,-100,0,0,100,0.00,40.00,0,-999,0,0.00
2013-5-5,62,48,38,-100,-100,-100,0,0,100,0.00,40.00,0,-999,0,0.00
2013-5-6,69,54,42,-100,-100,-100,0,0,100,0.00,40.00,0,-999,0,0.00
2013-5-7,68,53,42,-100,-100,-100,0,0,100,0.00,40.00,0,-999,0,0.00
2013-5-8,71,56,42,-100,-100,-100,0,0,100,0.00,40.00,0,-999,0,0.00
2013-5-9,71,55,44,-100,-100,-100,0,0,100,0.00,40.00,0,-999,0,0.00
2013-5-10,73,57,46,-100,-100,-100,0,0,100,0.00,40.00,0,-999,0,0.00
2013-5-11,76,57,48,-100,-100,-100,0,0,100,0.00,40.00,0,-999,0,0.01
2013-5-12,76,59,48,-100,-100,-100,0,0,100,0.00,40.00,0,-999,0,0.00
2013-5-13,71,57,47,-100,-100,-100,0,0,100,0.00,40.00,0,-999,0,0.01
2013-5-14,62,49,38,-100,-100,-100,0,0,100,0.00,40.00,0,-999,0,0.00
2013-5-15,62,50,40,-100,-100,-100,0,0,100,0.00,40.00,0,-999,0,0.01
2013-5-16,53,48,42,-100,-100,-100,0,0,100,0.00,40.00,0,-999,0,0.02
2013-5-17,51,44,41,-100,-100,-100,0,0,100,0.00,40.00,0,-999,0,0.01
2013-5-18,51,43,38,-100,-100,-100,0,0,100,0.00,40.00,0,-999,0,0.01
2013-5-19,50,42,39,-100,-100,-100,0,0,100,0.00,40.00,0,-999,0,0.01
2013-5-20,67,49,40,-100,-100,-100,0,0,100,0.00,40.00,0,-999,0,0.00
2013-5-21,62,49,39,-100,-100,-100,0,0,100,0.00,40.00,0,-999,0,0.02
2013-5-22,41,36,30,-100,-100,-100,0,0,100,0.00,40.00,0,-999,0,0.01
2013-5-23,53,38,26,-100,-100,-100,0,0,100,0.00,40.00,0,-999,0,0.01
2013-5-24,49,38,33,-100,-100,-100,0,0,100,0.00,40.00,0,-999,0,0.02
2013-5-25,57,44,35,-100,-100,-100,0,0,100,0.00,40.00,0,-999,0,0.01
2013-5-26,54,45,41,-100,-100,-100,0,0,100,0.00,40.00,0,-999,0,0.02
2013-5-27,54,44,37,-100,-100,-100,0,0,100,0.00,40.00,0,-999,0,0.01
2013-5-28,49,44,39,-100,-100,-100,0,0,100,0.00,40.00,0,-999,0,0.02
2013-5-29,46,40,36,-100,-100,-100,0,0,100,0.00,40.00,0,-999,0,0.01
2013-5-30,50,40,33,-100,-100,-100,0,0,100,0.00,40.00,0,-999,0,0.01
2013-5-31,58,44,33,-100,-100,-100,0,0,100,0.00,40.00,0,-999,0,0.00
2013-6-1,66,51,37,-100,-100,-100,0,0,100,0.00,40.00,0,-999,0,0.00
2013-6-2,58,51,41,-100,-100,-100,0,0,100,0.00,40.00,0,-999,0,0.01
2013-6-3,62,49,38,-100,-100,-100,0,0,100,0.00,40.00,0,-999,0,0.01
2013-6-4,67,54,43,-100,-100,-100,0,0,100,0.00,40.00,0,-999,0,0.00
2013-6-5,73,58,44,-100,-100,-100,0,0,100,0.00,40.00,0,-999,0,0.00
2013-6-6,76,62,50,-100,-100,-100,0,0,100,0.00,40.00,0,-999,0,0.00
2013-6-7,75,60,51,-100,-100,-100,0,0,100,0.00,40.00,0,-999,0,0.00
2013-6-8,74,59,45,-100,-100,-100,0,0,100,0.00,40.00,0,-999,0,0.00
2013-6-9,77,61,48,-100,-100,-100,0,0,100,0.00,40.00,0,-999,0,0.00
2013-6-10,79,61,46,-100,-100,-100,0,0,100,0.00,40.00,0,-999,0,0.00
2013-6-11,70,59,49,-100,-100,-100,0,0,100,0.00,40.00,0,-999,0,0.01
2013-6-12,67,56,44,-100,-100,-100,0,0,100,0.00,40.00,0,-999,0,0.00
2013-6-13,59,49,37,-100,-100,-100,0,0,100,0.00,40.00,0,-999,0,0.02
2013-6-14,58,44,38,-100,-100,-100,0,0,100,0.00,40.00,0,-999,0,0.02
2013-6-15,71,53,38,-100,-100,-100,0,0,100,0.00,40.00,0,-999,0,0.00
2013-6-16,77,63,49,-100,-100,-100,0,0,100,0.00,40.00,0,-999,0,0.00
2013-6-17,76,65,53,-100,-100,-100,0,0,100,0.00,40.00,0,-999,0,0.00
2013-6-18,72,60,49,-100,-100,-100,0,0,100,0.00,40.00,0,-999,0,0.02
2013-6-19,50,43,37,-100,-100,-100,0,0,100,0.00,40.00,0,-999,0,0.05
2013-6-20,44,39,36,-100,-100,-100,0,0,100,0.00,40.00,0,-999,0,0.01
2013-6-22,62,52,43,-100,-100,-100,0,0,100,0.00,40.00,0,-999,0,0.00
2013-6-23,66,53,41,-100,-100,-100,0,0,100,0.00,40.00,0,-999,0,0.01
2013-6-24,58,52,48,-100,-100,-100,0,0,100,0.00,40.00,0,-999,0,0.02
2013-6-25,51,49,48,-100,-100,-100,0,0,100,0.00,40.00,0,-999,0,0.01
2013-6-26,60,53,50,-100,-100,-100,0,0,100,0.00,40.00,0,-999,0,0.01
2013-6-27,78,60,48,-100,-100,-100,0,0,100,0.00,40.00,0,-999,0,0.00
2013-6-28,85,69,54,-100,-100,-100,0,0,100,0.00,40.00,0,-999,0,0.00
2013-6-29,86,73,61,-100,-100,-100,0,0,100,0.00,40.00,0,-999,0,0.00
2013-6-30,86,73,60,-100,-100,-100,0,0,100,0.00,40.00,0,-999,0,0.00
2013-7-1,93,75,64,-100,-100,-100,0,0,100,0.00,40.00,0,-999,0,0.00
2013-7-2,92,74,63,-100,-100,-100,0,0,100,0.00,40.00,0,-999,0,0.01
2013-7-3,85,72,60,-100,-100,-100,0,0,100,0.00,40.00,0,-999,0,0.01
2013-7-4,79,67,57,-100,-100,-100,0,0,100,0.00,40.00,0,-999,0,0.00
2013-7-5,76,65,52,-100,-100,-100,0,0,100,0.00,40.00,0,-999,0,0.01
2013-7-6,79,60,49,-100,-100,-100,0,0,100,0.00,40.00,0,-999,0,0.01
2013-7-7,81,66,51,-100,-100,-100,0,0,100,0.00,40.00,0,-999,0,0.00
2013-7-8,79,63,55,-100,-100,-100,0,0,100,0.00,40.00,0,-999,0,0.00
2013-7-9,82,65,52,-100,-100,-100,0,0,100,0.00,40.00,0,-999,0,0.00
2013-7-10,86,70,57,-100,-100,-100,0,0,100,0.00,40.00,0,-999,0,0.00
2013-7-11,72,62,53,-100,-100,-100,0,0,100,0.00,40.00,0,-999,0,0.02
2013-7-12,68,56,49,-100,-100,-100,0,0,100,0.00,40.00,0,-999,0,0.00
2013-7-13,75,61,48,-100,-100,-100,0,0,100,0.00,40.00,0,-999,0,0.00
2013-7-14,80,64,50,-100,-100,-100,0,0,100,0.00,40.00,0,-999,0,0.00
2013-7-15,85,65,56,-100,-100,-100,0,0,100,0.00,40.00,0,-999,0,0.00
2013-7-16,89,70,58,-100,-100,-100,0,0,100,0.00,40.00,0,-999,0,0.01
2013-7-17,83,69,58,-100,-100,-100,0,0,100,0.00,40.00,0,-999,0,0.00
2013-7-18,85,72,56,-100,-100,-100,0,0,100,0.00,40.00,0,-999,0,0.00
2013-7-19,90,69,60,-100,-100,-100,0,0,100,0.00,40.00,0,-999,0,0.00
2013-7-20,86,69,57,-100,-100,-100,0,0,100,0.00,40.00,0,-999,0,0.00
2013-7-21,87,69,57,-100,-100,-100,0,0,100,0.00,40.00,0,-999,0,0.00
2013-7-22,85,68,54,-100,-100,-100,0,0,100,0.00,40.00,0,-999,0,0.00
2013-7-23,88,70,55,-100,-100,-100,0,0,100,0.00,40.00,0,-999,0,0.00
2013-7-24,89,73,60,-100,-100,-100,0,0,100,0.00,40.00,0,-999,0,0.00
2013-7-25,86,73,61,-100,-100,-100,0,0,100,0.00,40.00,0,-999,0,0.00
2013-7-26,85,70,58,-100,-100,-100,0,0,100,0.00,40.00,0,-999,0,0.00
2013-7-27,83,69,58,-100,-100,-100,0,0,100,0.00,40.00,0,-999,0,0.00
2013-7-28,80,64,54,-100,-100,-100,0,0,100,0.00,40.00,0,-999,0,0.01
2013-7-29,74,62,50,-100,-100,-100,0,0,100,0.00,40.00,0,-999,0,0.01
2013-7-30,79,67,56,-100,-100,-100,0,0,100,0.00,40.00,0,-999,0,0.00
2013-7-31,81,69,57,-100,-100,-100,0,0,100,0.00,40.00,0,-999,0,0.01
2013-8-1,69,59,48,-100,-100,-100,0,0,100,0.00,40.00,0,-999,0,0.01
2013-8-2,70,55,45,-100,-100,-100,0,0,100,0.00,40.00,0,-999,0,0.01
2013-8-3,74,58,46,-100,-100,-100,0,0,100,0.00,40.00,0,-999,0,0.00
2013-8-4,80,65,49,-100,-100,-100,0,0,100,0.00,40.00,0,-999,0,0.00
2013-8-5,83,68,58,-100,-100,-100,0,0,100,0.00,40.00,0,-999,0,0.00
2013-8-6,82,67,54,-100,-100,-100,0,0,100,0.00,40.00,0,-999,0,0.01
2013-8-7,84,67,56,-100,-100,-100,0,0,100,0.00,40.00,0,-999,0,0.00
2013-8-8,83,69,60,-100,-100,-100,0,0,100,0.00,40.00,0,-999,0,0.00
2013-8-9,86,68,60,-100,-100,-100,0,0,100,0.00,40.00,0,-999,0,0.01
2013-8-10,81,67,56,-100,-100,-100,0,0,100,0.00,40.00,0,-999,0,0.00
2013-8-11,82,65,57,-100,-100,-100,0,0,100,0.00,40.00,0,-999,0,0.01
2013-8-25,78,64,53,-100,-100,-100,0,0,100,0.00,40.00,0,-999,0,0.00
2013-8-26,72,60,50,-100,-100,-100,0,0,100,0.00,40.00,0,-999,0,0.00
2013-8-27,73,59,52,-100,-100,-100,0,0,100,0.00,40.00,0,-999,0,0.00
2013-8-28,72,66,60,-100,-100,-100,0,0,100,0.00,40.00,0,-999,0,0.02
2013-8-29,78,64,55,-100,-100,-100,0,0,100,0.00,40.00,0,-999,0,0.02
2013-8-30,75,64,54,-100,-100,-100,0,0,100,0.00,40.00,0,-999,0,0.01
2013-8-31,83,62,51,-100,-100,-100,0,0,100,0.00,40.00,0,-999,0,0.00
2013-9-1,79,67,57,-100,-100,-100,0,0,100,0.00,40.00,0,-999,0,0.01
2013-9-2,75,65,61,-100,-100,-100,0,0,100,0.00,40.00,0,-999,0,0.01
2013-9-3,72,60,55,-100,-100,-100,0,0,100,0.00,40.00,0,-999,0,0.01
2013-9-4,79,63,53,-100,-100,-100,0,0,100,0.00,40.00,0,-999,0,0.00
2013-9-5,71,57,51,-100,-100,-100,0,0,100,0.00,40.00,0,-999,0,0.04
2013-9-6,65,55,48,-100,-100,-100,0,0,100,0.00,40.00,0,-999,0,0.01
2013-9-12,76,63,55,-100,-100,-100,0,0,100,0.00,40.00,0,-999,0,0.01
2013-9-13,72,61,55,-100,-100,-100,0,0,100,0.00,40.00,0,-999,0,0.00
2013-9-14,72,63,56,-100,-100,-100,0,0,100,0.00,40.00,0,-999,0,0.00
2013-9-15,76,63,54,-100,-100,-100,0,0,100,0.00,40.00,0,-999,0,0.00
2013-9-16,69,56,50,-100,-100,-100,0,0,100,0.00,40.00,0,-999,0,0.01
2013-9-17,60,50,44,-100,-100,-100,0,0,100,0.00,40.00,0,-999,0,0.01
2013-9-18,44,42,38,-100,-100,-100,0,0,100,0.00,40.00,0,-999,0,0.00
2013-9-19,62,44,35,-100,-100,-100,0,0,100,0.00,40.00,0,-999,0,0.00
2013-9-20,71,54,41,-100,-100,-100,0,0,100,0.00,40.00,0,-999,0,0.00
2013-9-21,58,54,47,-100,-100,-100,0,0,100,0.00,40.00,0,-999,0,0.02
2013-9-22,57,49,43,-100,-100,-100,0,0,100,0.00,40.00,0,-999,0,0.00
2013-9-23,52,45,37,-100,-100,-100,0,0,100,0.00,40.00,0,-999,0,0.01
2013-9-24,46,43,38,-100,-100,-100,0,0,100,0.00,40.00,0,-999,0,0.03
2013-9-25,42,39,36,-100,-100,-100,0,0,100,0.00,40.00,0,-999,0,0.01
2013-9-26,44,39,35,-100,-100,-100,0,0,100,0.00,40.00,0,-999,0,0.00
2013-9-27,45,40,35,-100,-100,-100,0,0,100,0.00,40.00,0,-999,0,0.01
2013-9-28,43,39,35,-100,-100,-100,0,0,100,0.00,40.00,0,-999,0,0.03
2013-9-29,44,41,36,-100,-100,-100,0,0,100,0.00,40.00,0,-999,0,0.04
2013-9-30,50,42,35,-100,-100,-100,0,0,100,0.00,40.00,0,-999,0,0.05
2013-10-1,47,42,37,-100,-100,-100,0,0,100,0.00,40.00,0,-999,0,0.00
2013-10-2,51,38,29,-100,-100,-100,0,0,100,0.00,40.00,0,-999,0,0.00
2013-10-3,43,38,34,-100,-100,-100,0,0,100,0.00,40.00,0,-999,0,0.00
2013-10-4,51,42,31,-100,-100,-100,0,0,100,0.00,40.00,0,-999,0,0.00
2013-10-5,56,43,32,-100,-100,-100,0,0,100,0.00,40.00,0,-999,0,0.00
2013-10-6,62,46,36,-100,-100,-100,0,0,100,0.00,40.00,0,-999,0,0.00
2013-10-7,54,46,40,-100,-100,-100,0,0,100,0.00,40.00,0,-999,0,0.02
2013-10-8,40,36,32,-100,-100,-100,0,0,100,0.00,40.00,0,-999,0,0.01
2013-10-9,41,34,32,-100,-100,-100,0,0,100,0.00,40.00,0,-999,0,0.00
2013-10-10,50,39,31,-100,-100,-100,0,0,100,0.00,40.00,0,-999,0,0.01
2013-10-11,49,39,31,-100,-100,-100,0,0,100,0.00,40.00,0,-999,0,0.00
2013-10-12,42,36,33,-100,-100,-100,0,0,100,0.00,40.00,0,-999,0,0.00
2013-10-13,47,42,36,-100,-100,-100,0,0,100,0.00,40.00,0,-999,0,0.00
2013-10-21,45,43,42,-100,-100,-100,0,0,100,0.00,40.00,0,-999,0,0.00
2013-10-22,61,48,40,-100,-100,-100,0,0,100,0.00,40.00,0,-999,0,0.00
2013-10-23,40,40,39,-100,-100,-100,0,0,100,0.00,40.00,0,-999,0,0.00
2013-10-24,55,51,47,-100,-100,-100,0,0,100,0.00,40.00,0,-999,0,0.00
2013-10-25,47,42,41,-100,-100,-100,0,0,100,0.00,40.00,0,-999,0,0.00
2013-10-26,53,44,40,-100,-100,-100,0,0,100,0.00,40.00,0,-999,0,0.00
2013-10-27,42,42,42,-100,-100,-100,0,0,100,0.00,40.00,0,-999,0,0.00
2013-11-12,53,43,39,-100,-100,-100,0,0,100,0.00,40.00,0,-999,0,0.00
2013-11-13,40,40,40,-100,-100,-100,0,0,100,0.00,40.00,0,-999,0,0.00
2013-11-14,39,34,31,-100,-100,-100,0,0,100,0.00,40.00,0,-999,0,0.00
2013-11-15,33,32,31,-100,-100,-100,0,0,100,0.00,40.00,0,-999,0,0.00
2013-11-16,27,26,25,-100,-100,-100,0,0,100,0.00,40.00,0,-999,0,0.00
2013-11-17,33,33,33,-100,-100,-100,0,0,100,0.00,40.00,0,-999,0,0.00
2013-11-18,33,30,26,-100,-100,-100,0,0,100,0.00,40.00,0,-999,0,0.00
2013-11-19,35,34,33,-100,-100,-100,0,0,100,0.00,40.00,0,-999,0,0.04
2013-11-20,35,26,16,-100,-100,-100,0,0,100,0.00,40.00,0,-999,0,0.03
2013-11-21,35,25,18,-100,-100,-100,0,0,100,0.00,40.00,0,-999,0,0.00
2013-11-22,32,26,20,-100,-100,-100,0,0,100,0.00,40.00,0,-999,0,0.00
2013-11-23,50,32,24,-100,-100,-100,0,0,100,0.00,40.00,0,-999,0,0.00
2013-11-24,35,32,28,-100,-100,-100,0,0,100,0.00,40.00,0,-999,0,0.00
2013-11-25,36,34,33,-100,-100,-100,0,0,100,0.00,40.00,0,-999,0,0.00
2013-11-26,42,36,31,-100,-100,-100,0,0,100,0.00,40.00,0,-999,0,0.00
2013-11-27,41,36,32,-100,-100,-100,0,0,100,0.00,40.00,0,-999,0,0.00
2013-11-28,49,35,31,-100,-100,-100,0,0,100,0.00,40.00,0,-999,0,0.00
2013-11-29,39,34,29,-100,-100,-100,0,0,100,0.00,40.00,0,-999,0,0.00
2013-11-30,34,34,33,-100,-100,-100,0,0,100,0.00,40.00,0,-999,0,0.00
2013-12-1,34,33,32,-100,-100,-100,0,0,100,0.00,40.00,0,-999,0,0.02
2013-12-2,35,28,20,-100,-100,-100,0,0,100,0.00,40.00,0,-999,0,0.02
2013-12-3,22,18,13,-100,-100,-100,0,0,100,0.00,40.00,0,-999,0,0.00
2013-12-4,13,10,5,-100,-100,-100,0,0,100,0.00,40.00,0,-999,0,0.00
2013-12-11,21,18,15,-100,-100,-100,0,0,100,0.00,40.00,0,-999,0,0.00
2013-12-12,21,20,19,-100,-100,-100,0,0,100,0.00,40.00,0,-999,0,0.00
2013-12-13,32,28,24,-100,-100,-100,0,0,100,0.00,40.00,0,-999,0,0.01
2013-12-14,31,30,30,-100,-100,-100,0,0,100,0.00,40.00,0,-999,0,0.00
2013-12-15,31,29,27,-100,-100,-100,0,0,100,0.00,40.00,0,-999,0,0.00
2013-12-16,40,31,24,-100,-100,-100,0,0,100,0.00,40.00,0,-999,0,0.00
2013-12-17,29,27,26,-100,-100,-100,0,0,100,0.00,40.00,0,-999,0,0.00
2013-12-18,32,30,29,-100,-100,-100,0,0,100,0.00,40.00,0,-999,0,0.00
2013-12-19,25,21,15,-100,-100,-100,0,0,100,0.00,40.00,0,-999,0,0.00
2013-12-20,16,15,13,-100,-100,-100,0,0,100,0.00,40.00,0,-999,0,0.00
2013-12-21,29,24,18,-100,-100,-100,0,0,100,0.00,40.00,0,-999,0,0.01
2013-12-22,34,30,28,-100,-100,-100,0,0,100,0.00,40.00,0,-999,0,0.00
2013-12-23,33,32,30,-100,-100,-100,0,0,100,0.00,40.00,0,-999,0,0.00
2013-12-24,28,21,18,-100,-100,-100,0,0,100,0.00,40.00,0,-999,0,0.01
2013-12-25,30,24,17,-100,-100,-100,0,0,100,0.00,40.00,0,-999,0,0.00
2013-12-26,32,26,22,-100,-100,-100,0,0,100,0.00,40.00,0,-999,0,0.00
2013-12-27,24,24,24,-100,-100,-100,0,0,100,0.00,40.00,0,-999,0,0.00
2013-12-28,28,28,28,-100,-100,-100,0,0,100,0.00,40.00,0,-999,0,0.00
2013-12-29,19,18,18,-100,-100,-100,0,0,100,0.00,40.00,0,-999,0,0.00
2013-12-30,33,28,24,-100,-100,-100,0,0,100,0.00,40.00,0,-999,0,0.00
2013-12-31,29,28,28,-100,-100,-100,0,0,100,0.00,40.00,0,-999,0,0.00
2014-1-1,38,25,20,-100,-100,-100,0,0,100,0.00,40.00,0,-999,0,0.00
2014-1-2,35,29,26,-100,-100,-100,0,0,100,0.00,40.00,0,-999,0,0.00